Prague, Czech Republic

6:00 PM CEST on April 24, 2017 (GMT +0200)
Prague-Ruzyne Airport

Weather History for LKPR - November, 2013

Change the Weather History Date:

Sunday, November 3, 2013

  Actual Average Record
Temperature  
Mean Temperature 47 °F -  
Max Temperature 52 °F 42 °F 57 °F (2004)
Min Temperature 42 °F 31 °F 24 °F (2006)
Degree Days  
Heating Degree Days 18    
Moisture  
Dew Point 44 °F    
Average Humidity 82    
Maximum Humidity 88    
Minimum Humidity 68    
Precipitation  
Precipitation 0.12 in 0.04 in - ()
Sea Level Pressure  
Sea Level Pressure 29.68 in    
Wind  
Wind Speed 14 mph ()    
Max Wind Speed 24 mph    
Max Gust Speed 33 mph    
Visibility 6.4 miles    
Events Rain    
Averages and records for this station are not official NWS values.
T = Trace of Precipitation, MM = Missing Value Source: Averaged Metar Reports

Daily Weather History Graph

Daily Weather History Graph

Search for Another Location

Airport or City:

Trip Planner

Search our weather history database for the weather conditions in past years. The results will help you decide how hot, cold, wet, or windy it might be!

Date:

Astronomy

Nov. 03, 2013 Rise Set
Actual Time 6:56 AM CET 4:35 PM CET
Civil Twilight 6:21 AM CET 5:10 PM CET
Nautical Twilight 5:43 AM CET 5:48 PM CET
Astronomical Twilight 5:05 AM CET 6:26 PM CET
Moon 6:40 AM CET (11/3) 4:35 PM CET (11/3)
Length of Visible Light 10h 48m
Length of Day
9h 39m
Waning Crescent, 0% of the Moon is Illuminated
Nov 3
Waning Crescent
Nov 3
New
Nov 10
First Quarter
Nov 17
Full
Nov 25
Last Quarter

Hourly Weather History & Observations

Time (CET) Temp. Windchill Dew Point Humidity Pressure Visibility Wind Dir Wind Speed Gust Speed Precip Events Conditions
12:00 AM 53.6 °F - 50.0 °F 88% 29.71 in - SSW 13.8 mph - N/A   Clear
12:11 AM 55.4 °F - 50.0 °F 82% 29.74 in 6.2 mi SSW 17.3 mph - N/A Rain Light Rain Showers
12:20 AM 53.6 °F - 50.0 °F 88% 29.74 in 6.2 mi SW 20.7 mph - N/A   Scattered Clouds
12:30 AM 53.6 °F - 50.0 °F 88% 29.74 in 6.2 mi SW 19.6 mph - N/A   Mostly Cloudy
12:52 AM 53.6 °F - 50.0 °F 88% 29.74 in 6.2 mi SW 11.5 mph - N/A Rain Light Rain Showers
1:00 AM 54 °F - 51 °F 86% 29.74 in 19 mi WSW 13.4 mph - - Rain Light Rain Showers
1:00 AM 53.6 °F - 50.0 °F 88% 29.74 in 6.2 mi SW 15.0 mph - N/A   Scattered Clouds
1:30 AM 53.6 °F - 50.0 °F 88% 29.71 in 6.2 mi SW 13.8 mph - N/A   Partly Cloudy
2:00 AM 51.8 °F - 48.2 °F 88% 29.71 in - SSW 12.7 mph - N/A   Clear
2:30 AM 51.8 °F - 48.2 °F 88% 29.68 in - SSW 10.4 mph - N/A   Clear
3:00 AM 51.8 °F - 48.2 °F 88% 29.68 in - South 9.2 mph - N/A   Clear
3:30 AM 51.8 °F - 48.2 °F 88% 29.65 in - SSW 10.4 mph - N/A   Clear
4:00 AM 51.8 °F - 48.2 °F 88% 29.65 in - South 9.2 mph - N/A   Clear
4:30 AM 51.8 °F - 48.2 °F 88% 29.68 in - SSW 10.4 mph - N/A   Clear
5:00 AM 51.8 °F - 46.4 °F 82% 29.65 in - South 11.5 mph - N/A   Clear
5:30 AM 51.8 °F - 46.4 °F 82% 29.65 in - South 8.1 mph - N/A   Clear
6:00 AM 51.8 °F - 46.4 °F 82% 29.65 in - South 9.2 mph - N/A   Clear
6:30 AM 51.8 °F - 46.4 °F 82% 29.62 in - South 10.4 mph - N/A   Clear
7:00 AM 51 °F - 47 °F 80% 29.64 in 37 mi South 4.5 mph - -   Overcast
7:00 AM 51.8 °F - 46.4 °F 82% 29.62 in - South 9.2 mph - N/A   Clear
7:30 AM 51.8 °F - 46.4 °F 82% 29.62 in - South 6.9 mph - N/A   Clear
8:00 AM 51.8 °F - 46.4 °F 82% 29.62 in 6.2 mi South 8.1 mph - N/A   Partly Cloudy
8:30 AM 51.8 °F - 46.4 °F 82% 29.62 in 6.2 mi SSW 11.5 mph - N/A Rain Light Rain
9:00 AM 51.8 °F - 48.2 °F 88% 29.62 in 6.2 mi SSW 16.1 mph - N/A Rain Light Rain
9:30 AM 51.8 °F - 48.2 °F 88% 29.62 in 6.2 mi SSW 16.1 mph - N/A Rain Light Rain
10:00 AM 51.8 °F - 48.2 °F 88% 29.59 in 6.2 mi SSW 13.8 mph - N/A Rain Light Rain
10:30 AM 51.8 °F - 48.2 °F 88% 29.59 in 6.2 mi SSW 11.5 mph - N/A Rain Light Rain
10:44 AM 51.8 °F - 48.2 °F 88% 29.62 in 6.2 mi SW 13.8 mph - N/A Rain Rain
10:50 AM 51.8 °F - 48.2 °F 88% 29.62 in 2.2 mi SW 16.1 mph - N/A Rain Rain
11:00 AM 51.8 °F - 48.2 °F 88% 29.62 in 6.2 mi WSW 17.3 mph - N/A Rain Light Rain
11:30 AM 51.8 °F - 48.2 °F 88% 29.59 in 6.2 mi SW 20.7 mph - N/A   Scattered Clouds
12:00 PM 50.0 °F - 44.6 °F 82% 29.59 in 6.2 mi SW 17.3 mph 28.8 mph N/A   Scattered Clouds
12:30 PM 50.0 °F - 44.6 °F 82% 29.59 in 6.2 mi WSW 18.4 mph - N/A   Partly Cloudy
12:47 PM 50.0 °F - 44.6 °F 82% 29.62 in 6.2 mi WSW 21.9 mph - N/A   Scattered Clouds
1:00 PM 50 °F - 44 °F 73% 29.62 in 37 mi WSW 17.9 mph - -   Partly Cloudy
1:00 PM 50.0 °F - 44.6 °F 82% 29.59 in 6.2 mi WSW 20.7 mph - N/A   Scattered Clouds
1:30 PM 50.0 °F - 42.8 °F 76% 29.62 in 6.2 mi WSW 19.6 mph - N/A   Mostly Cloudy
2:00 PM 50.0 °F - 42.8 °F 76% 29.62 in 6.2 mi WSW 19.6 mph 31.1 mph N/A   Partly Cloudy
2:30 PM 48.2 °F - 41.0 °F 76% 29.65 in 6.2 mi WSW 19.6 mph - N/A   Partly Cloudy
3:00 PM 48.2 °F - 41.0 °F 76% 29.65 in 6.2 mi WSW 19.6 mph - N/A   Partly Cloudy
3:30 PM 48.2 °F - 41.0 °F 76% 29.68 in 6.2 mi SW 21.9 mph - N/A Rain Light Rain
4:00 PM 48.2 °F - 41.0 °F 76% 29.68 in 6.2 mi SW 24.2 mph - N/A   Partly Cloudy
4:30 PM 46.4 °F 38.5 °F 39.2 °F 76% 29.68 in 6.2 mi WSW 21.9 mph 33.4 mph N/A   Partly Cloudy
5:00 PM 44.6 °F 37.2 °F 37.4 °F 76% 29.68 in 6.2 mi WSW 17.3 mph 28.8 mph N/A   Partly Cloudy
5:30 PM 44.6 °F 36.1 °F 37.4 °F 76% 29.71 in - WSW 21.9 mph - N/A   Clear
6:00 PM 44.6 °F 36.1 °F 37.4 °F 76% 29.71 in - SW 21.9 mph - N/A   Clear
6:30 PM 44.6 °F 35.9 °F 37.4 °F 76% 29.71 in - SW 23.0 mph - N/A   Clear
7:00 PM 44 °F - 37 °F 68% 29.77 in 31 mi WSW 17.9 mph - -   Partly Cloudy
7:00 PM 42.8 °F 34.3 °F 37.4 °F 81% 29.74 in 6.2 mi WSW 19.6 mph - N/A   Partly Cloudy
7:30 PM 42.8 °F 34.3 °F 37.4 °F 81% 29.74 in - SW 19.6 mph - N/A   Clear
8:00 PM 42.8 °F 33.8 °F 37.4 °F 81% 29.74 in 6.2 mi SW 21.9 mph - N/A   Scattered Clouds
8:30 PM 42.8 °F 35.4 °F 35.6 °F 76% 29.77 in 6.2 mi WSW 15.0 mph - N/A   Partly Cloudy
9:00 PM 42.8 °F 34.5 °F 35.6 °F 76% 29.77 in - WSW 18.4 mph - N/A   Clear
9:30 PM 44.6 °F 37.8 °F 35.6 °F 71% 29.77 in 6.2 mi WSW 15.0 mph - N/A   Partly Cloudy
10:00 PM 42.8 °F 35.8 °F 35.6 °F 76% 29.77 in - WSW 13.8 mph - N/A   Clear
10:30 PM 42.8 °F 36.2 °F 35.6 °F 76% 29.77 in 6.2 mi WSW 12.7 mph - N/A   Partly Cloudy
11:00 PM 42.8 °F 36.6 °F 35.6 °F 76% 29.77 in 6.2 mi WSW 11.5 mph - N/A   Scattered Clouds
11:30 PM 42.8 °F 36.6 °F 35.6 °F 76% 29.77 in 6.2 mi SW 11.5 mph - N/A   Scattered Clouds